This demonstration page uses our WeatherBlox Daily Observations layout. Learn more.

Left ArrowRight Arrow

Hourly Observations for October 14, 2020

Temp ( °F °C ) Dew Point ( °F °C ) Humidity (%) Winds ( mph kmh ) Pressure ( in mb ) Visibility ( mi km ) Precip ( " mm )
12:15 am 00:15 Clear 51 10.8 35 1.7 54 54 SSE 7 11 29.90 1012 10 16 N/A
12:35 am 00:35 Clear 51 10.5 35 1.8 55 55 SSE 7 11 29.87 1011 10 16 N/A
12:55 am 00:55 Clear 53 11.5 37 2.7 55 55 S 6 9 29.85 1011 10 16 N/A
1:15 am 01:15 Clear 57 13.7 37 2.7 48 48 S 14 22 29.82 1010 10 16 N/A
1:35 am 01:35 Clear 56 13.6 37 2.7 48 48 S 15 24 29.80 1009 10 16 N/A
1:55 am 01:55 Clear 56 13.5 37 2.5 48 48 SSW 13 20 29.79 1009 10 16 N/A
2:15 am 02:15 Clear 57 13.7 36 2.3 46 46 S 15 24 29.77 1008 10 16 N/A
2:35 am 02:35 Clear 56 13.5 36 2.2 47 47 S 14 22 29.76 1008 10 16 N/A
2:55 am 02:55 Clear 56 13.5 36 2.1 46 46 SSW 12 19 29.75 1008 10 16 N/A
3:15 am 03:15 Clear 55 12.6 36 2 49 49 SW 9 15 29.74 1007 10 16 N/A
3:35 am 03:35 Clear 55 13 35 1.6 46 46 SSW 12 19 29.74 1007 10 16 N/A
3:55 am 03:55 Clear 56 13.5 35 1.5 44 44 SSW 12 19 29.72 1007 10 16 N/A
4:15 am 04:15 Clear 56 13.1 35 1.5 46 46 SSW 12 19 29.72 1006 10 16 N/A
4:35 am 04:35 Clear 56 13.1 34 1.3 45 45 SSW 13 20 29.70 1006 10 16 N/A
4:55 am 04:55 Clear 55 12.8 34 1.2 45 45 SW 10 17 29.70 1006 10 16 N/A
5:15 am 05:15 Clear 55 12.7 34 1.2 46 46 SW 7 11 29.70 1006 10 16 N/A
5:35 am 05:35 Clear 55 12.6 34 1.2 46 46 SSW 9 15 29.68 1005 10 16 N/A
5:55 am 05:55 Clear 55 12.5 34 1.1 46 46 SW 10 17 29.67 1005 10 16 N/A
6:15 am 06:15 Clear 54 12.3 34 1 46 46 SW 8 13 29.66 1004 10 16 N/A
6:35 am 06:35 Clear 54 12.1 34 1 47 47 SSW 10 17 29.67 1005 10 16 N/A
6:55 am 06:55 Clear 54 12 34 1 47 47 SSW 7 11 29.67 1005 10 16 N/A
7:15 am 07:15 Clear 52 11.3 34 1 49 49 SSW 6 9 29.67 1005 10 16 N/A
7:35 am 07:35 Clear 51 10.4 34 1 52 52 SW 5 7 29.67 1005 10 16 N/A
7:55 am 07:55 Sunny 50 9.9 34 1.2 55 55 SW 3 6 29.68 1005 10 16 N/A
8:15 am 08:15 Sunny 51 10.5 34 1.3 53 53 NW 9 15 29.72 1006 10 16 N/A
8:35 am 08:35 Sunny 54 12.2 33 0.8 46 46 NW 7 11 29.71 1006 10 16 N/A
8:55 am 08:55 Sunny 55 12.8 33 0.7 44 44 NNW 8 13 29.73 1007 10 16 N/A
9:15 am 09:15 Sunny 57 14.1 34 1.1 41 41 N 12 19 29.73 1007 10 16 N/A
9:35 am 09:35 Sunny 59 15.2 37 2.7 43 43 N 22 35 29.74 1007 10 16 N/A
9:55 am 09:55 Sunny 62 16.6 38 3.6 42 42 N 22 35 29.74 1007 10 16 N/A
10:15 am 10:15 Sunny 63 17.1 38 3.5 41 41 N 15 24 29.74 1007 10 16 N/A
10:35 am 10:35 Sunny 64 17.9 38 3.3 38 38 N 18 30 29.75 1007 10 16 N/A
10:55 am 10:55 Sunny 64 17.6 38 3.2 38 38 N 21 33 29.74 1007 10 16 N/A
11:15 am 11:15 Sunny 63 17.2 38 3.5 40 40 N 17 28 29.74 1007 10 16 N/A
11:35 am 11:35 Sunny 63 17.3 38 3.4 40 40 N 14 22 29.74 1007 10 16 N/A
11:55 am 11:55 Sunny 65 18.6 37 2.8 35 35 N 15 24 29.74 1007 10 16 N/A
12:15 pm 12:15 Sunny 67 19.6 37 2.7 33 33 N 18 30 29.73 1007 10 16 N/A
12:35 pm 12:35 Sunny 68 20.2 37 2.8 32 32 N 15 24 29.74 1007 10 16 N/A
12:55 pm 12:55 Sunny 69 20.7 37 2.6 30 30 N 21 33 29.72 1006 10 16 N/A
1:15 pm 13:15 Sunny 70 21 37 2.8 30 30 N 18 30 29.71 1006 10 16 N/A
1:35 pm 13:35 Sunny 69 20.7 37 2.7 31 31 N 18 30 29.72 1006 10 16 N/A
1:55 pm 13:55 Sunny 69 20.6 37 2.6 31 31 N 20 31 29.72 1007 10 16 N/A
2:15 pm 14:15 Sunny 69 20.7 37 2.9 31 31 NNW 20 31 29.73 1007 10 16 N/A
2:35 pm 14:35 Sunny 69 20.5 37 2.5 30 30 NNW 18 30 29.72 1007 10 16 N/A
2:55 pm 14:55 Sunny 69 20.5 35 1.6 29 29 N 15 24 29.74 1007 10 16 N/A
3:15 pm 15:15 Sunny 69 20.4 35 1.6 29 29 N 20 31 29.75 1008 10 16 N/A
3:35 pm 15:35 Sunny 68 20 34 1.3 29 29 N 16 26 29.77 1008 7 11 N/A
3:55 pm 15:55 Sunny 67 19.6 34 1.1 29 29 NNW 18 30 29.78 1008 10 16 N/A
4:15 pm 16:15 Sunny 66 19 34 1.2 31 31 NNW 17 28 29.80 1009 10 16 N/A
4:35 pm 16:35 Partly Cloudy 64 18 34 1 32 32 N 15 24 29.81 1010 10 16 N/A
4:55 pm 16:55 Sunny 65 18.2 33 0.8 31 31 N 14 22 29.83 1010 10 16 N/A
5:15 pm 17:15 Sunny 63 17.2 31 -0.4 30 30 N 9 15 29.84 1011 10 16 N/A
5:35 pm 17:35 Sunny 63 17.1 30 -1.1 29 29 NNW 13 20 29.84 1011 10 16 N/A
5:55 pm 17:55 Sunny 61 16.1 32 undefined 34 34 NNW 12 19 29.86 1011 10 16 N/A
6:15 pm 18:15 Sunny 60 15.3 32 undefined 35 35 NNW 6 9 29.87 1011 10 16 N/A
6:35 pm 18:35 Sunny 58 14.7 32 undefined 37 37 NW 6 9 29.87 1012 10 16 N/A
6:55 pm 18:55 Sunny 58 14.5 32 undefined 37 37 WNW 5 7 29.88 1012 10 16 N/A
7:15 pm 19:15 Clear 57 14 32 0.2 39 39 WNW 5 7 29.90 1012 10 16 N/A
7:35 pm 19:35 Clear 57 14 32 0.1 39 39 WNW 6 9 29.91 1013 10 16 N/A
7:55 pm 19:55 Clear 56 13.6 32 0.1 40 40 WNW 6 9 29.92 1013 10 16 N/A
8:15 pm 20:15 Partly Cloudy 56 13.5 32 0.2 40 40 WNW 6 9 29.91 1013 10 16 N/A
8:35 pm 20:35 Partly Cloudy 55 13 33 0.3 42 42 WNW 3 6 29.92 1013 10 16 N/A
8:55 pm 20:55 Cloudy 55 12.5 33 0.5 44 44 W 7 11 29.94 1014 10 16 N/A
9:15 pm 21:15 Mostly Cloudy 55 13 32 0.2 42 42 W 7 11 29.94 1014 10 16 N/A
9:35 pm 21:35 Mostly Cloudy 55 12.7 33 0.3 43 43 W 8 13 29.96 1015 10 16 N/A
9:55 pm 21:55 Cloudy 55 12.7 33 0.3 43 43 W 5 7 29.95 1014 10 16 N/A
10:15 pm 22:15 Cloudy 55 12.7 32 0.1 42 42 WNW 5 7 29.96 1015 10 16 N/A
10:35 pm 22:35 Cloudy 55 12.7 32 undefined 42 42 WNW 12 19 30.01 1016 10 16 N/A
10:55 pm 22:55 Cloudy 56 13.2 32 0.2 41 41 N 18 30 30.02 1017 10 16 N/A
11:15 pm 23:15 Cloudy 55 12.5 34 1.2 46 46 N 17 28 30.03 1017 10 16 N/A
11:35 pm 23:35 Cloudy 54 12.1 35 1.8 50 50 N 13 20 30.04 1017 10 16 N/A
11:55 pm 23:55 Cloudy 53 11.9 36 2.1 51 51 N 9 15 30.05 1017 10 16 N/A

Powered by AerisWeather